Overview Statistics Trail Chart Weather Telemetry Raw packets
 

This is the latest recevied weather packets stored in our database for station/object K6CED. If no packets are shown the sender has not sent any weather packets the latest 10 day(s).

<< 108 109 110 111 112 113 114 >>
Time Temp. Humidity Pressure Rain* Wind** Luminosity Snow
1787845530 28.89° C 61% 1016 hPa 0 mm - 405 W/m² -
1787845225 28.33° C 63% 1015.8 hPa 0 mm - 301 W/m² -
1787844921 27.78° C 64% 1015.8 hPa 0 mm - 305 W/m² -
1787844621 27.78° C 66% 1016.1 hPa 0 mm - 320 W/m² -
1787844315 27.22° C 68% 1015.8 hPa 0 mm - 395 W/m² -
1787844015 26.67° C 71% 1015.9 hPa 0 mm - 228 W/m² -
1787843715 26.11° C 72% 1016.1 hPa 0 mm - 170 W/m² -
1787843410 26.11° C 73% 1015.9 hPa 0 mm - 138 W/m² -
1787843107 25.56° C 74% 1016 hPa 0 mm - 132 W/m² -
1787842806 25.56° C 74% 1016 hPa 0 mm - 131 W/m² -
1787842504 25.56° C 75% 1015.7 hPa 0 mm - 140 W/m² -
1787842200 25.56° C 75% 1015.8 hPa 0 mm - 139 W/m² -
1787841896 25° C 76% 1015.9 hPa 0 mm - 144 W/m² -
1787841592 25° C 76% 1015.5 hPa 0 mm - 114 W/m² -
1787841290 25° C 76% 1015.4 hPa 0 mm - 91 W/m² -
1787840985 25° C 76% 1015.4 hPa 0 mm - 86 W/m² -
1787840681 24.44° C 76% 1015.5 hPa 0 mm - 104 W/m² -
1787840370 24.44° C 76% 1015.4 hPa 0 mm - 89 W/m² -
1787840066 23.89° C 76% 1015.3 hPa 0 mm - 74 W/m² -
1787839761 23.89° C 77% 1015.1 hPa 0 mm - 63 W/m² -
1787839455 23.89° C 77% 1015.2 hPa 0 mm - 52 W/m² -
1787839154 23.89° C 78% 1015.2 hPa 0 mm - 48 W/m² -
1787838854 23.33° C 78% 1014.9 hPa 0 mm - 45 W/m² -
1787838548 23.33° C 78% 1015 hPa 0 mm - 40 W/m² -
1787838247 22.78° C 79% 1014.8 hPa 0 mm - 32 W/m² -

* Rain latest hour (hover to see other rain measurements)
** Current wind speed in m/s (hover to see current wind gust speed)